Location: Ellingshausen
(50.5460°N, 10.4723°E)
Time: 13:18:36
(UTC+00:00)

Cosmos 676 Rocket - Pass Details

Date: 14 April 2026
Orbit: 750 x 779 km, 74.0° (Epoch: 19 May)

Event Time Altitude Azimuth Distance (km) Brightness Sun altitude
Rises 01:13:48 0° 325° (NW) 3,267 7.6 -25.1°
Reaches altitude 10° 01:16:47 10° 309° (NW) 2,330 6.6 -24.8°
Enters shadow 01:18:30 16° 292° (WNW) 1,935 6.0 -24.7°
